Change the Weather History Date:

Wednesday, November 7, 2012

  Actual Average Record
Temperature  
Mean Temperature 42 °F 42 °F  
Max Temperature 45 °F 53 °F 71 °F (2001)
Min Temperature 39 °F 32 °F 17 °F (1998)
Degree Days  
Heating Degree Days 23 23  
Month to date heating degree days 204 149  
Since 1 July heating degree days 895 756  
Cooling Degree Days 0 0  
Month to date cooling degree days 0 0  
Year to date cooling degree days 1007 655  
Moisture  
Dew Point 39 °F    
Average Humidity 92    
Maximum Humidity 100    
Minimum Humidity 83    
Precipitation  
Precipitation 0.02 in 0.11 in 0.10 in (2011)
Month to date precipitation 0.12 0.86  
Year to date precipitation 21.61 32.62  
Sea Level Pressure  
Sea Level Pressure 30.06 in    
Wind  
Wind Speed 4 mph (North)    
Max Wind Speed 9 mph    
Max Gust Speed 12 mph    
Visibility 3 miles    
Events Rain    
T = Trace of Precipitation, MM = Missing Value Source: NWS Daily Summary

Daily Weather History Graph

Daily Weather History Graph

Search for Another Location

Airport or City:

Trip Planner

Search our weather history database for the weather conditions in past years. The results will help you decide how hot, cold, wet, or windy it might be!

Date:

Astronomy

Nov. 07, 2012 Rise Set
Actual Time 6:34 AM CST 4:40 PM CST
Civil Twilight 6:04 AM CST 5:10 PM CST
Nautical Twilight 5:31 AM CST 5:43 PM CST
Astronomical Twilight 4:58 AM CST 6:15 PM CST
Moon No Moon Rise 12:55 PM CST (11/7)
Length of Visible Light 11h 05m
Length of Day
10h 06m
Last Quarter, 43% of the Moon is Illuminated
Nov 7
Last Quarter
Nov 13
New
Nov 20
First Quarter
Nov 28
Full
Dec 6
Last Quarter

Hourly Weather History & Observations

Time (CST) Temp. Windchill Dew Point Humidity Pressure Visibility Wind Dir Wind Speed Gust Speed Precip Events Conditions
12:52 AM 39.9 °F 37.8 °F 39.0 °F 97% 29.90 in 1.5 mi SE 3.5 mph - N/A   Overcast
1:52 AM 39.9 °F - 39.0 °F 97% 29.91 in 1.5 mi Calm Calm - 0.01 in   Overcast
2:52 AM 39.9 °F - 39.9 °F 100% 29.92 in 1.8 mi Calm Calm - 0.01 in Rain Light Rain
3:22 AM 39.2 °F 37.0 °F 39.2 °F 100% 29.91 in 0.8 mi ENE 3.5 mph - 0.00 in   Overcast
3:52 AM 39.9 °F 37.8 °F 39.9 °F 100% 29.94 in 0.8 mi ENE 3.5 mph - 0.00 in   Mist
4:04 AM 39.2 °F 37.0 °F 39.2 °F 100% 29.92 in 1.0 mi NE 3.5 mph - N/A   Overcast
4:52 AM 39.0 °F 34.8 °F 39.0 °F 100% 29.96 in 1.2 mi ENE 5.8 mph - N/A   Overcast
5:25 AM 39.2 °F 35.9 °F 39.2 °F 100% 29.95 in 2.5 mi NE 4.6 mph - N/A   Overcast
5:41 AM 39.2 °F 35.9 °F 39.2 °F 100% 29.96 in 3.0 mi ENE 4.6 mph - N/A   Overcast
5:44 AM 39.2 °F 35.9 °F 39.2 °F 100% 29.96 in 3.0 mi ENE 4.6 mph - N/A   Overcast
5:52 AM 39.0 °F 36.8 °F 39.0 °F 100% 29.99 in 3.0 mi NE 3.5 mph - N/A   Overcast
6:00 AM 39.2 °F 37.0 °F 39.2 °F 100% 29.97 in 3.0 mi NE 3.5 mph - N/A   Overcast
6:22 AM 39.2 °F 35.9 °F 39.2 °F 100% 29.98 in 2.5 mi NE 4.6 mph - N/A   Overcast
6:52 AM 39.0 °F 36.8 °F 39.0 °F 100% 30.01 in 2.0 mi NNE 3.5 mph - N/A   Overcast
6:59 AM 39.2 °F 35.9 °F 39.2 °F 100% 30.00 in 1.5 mi NNE 4.6 mph - N/A   Overcast
7:52 AM 39.9 °F 36.7 °F 39.0 °F 97% 30.04 in 2.0 mi North 4.6 mph - N/A   Overcast
8:26 AM 41.0 °F 38.0 °F 39.2 °F 93% 30.04 in 2.5 mi NNW 4.6 mph - N/A   Overcast
8:52 AM 41.0 °F 38.0 °F 39.0 °F 93% 30.07 in 2.5 mi NNE 4.6 mph - N/A   Overcast
8:59 AM 41.0 °F 39.0 °F 39.2 °F 93% 30.05 in 3.0 mi NNE 3.5 mph - N/A   Overcast
9:11 AM 41.0 °F 38.0 °F 39.2 °F 93% 30.05 in 3.0 mi NNE 4.6 mph - N/A   Overcast
9:20 AM 41.0 °F 37.1 °F 39.2 °F 93% 30.06 in 2.5 mi North 5.8 mph - N/A   Overcast
9:52 AM 41.0 °F 36.4 °F 39.0 °F 93% 30.09 in 3.0 mi North 6.9 mph - N/A   Overcast
10:22 AM 41.0 °F 37.1 °F 39.2 °F 93% 30.08 in 2.5 mi North 5.8 mph - N/A   Overcast
10:52 AM 42.1 °F 38.4 °F 39.9 °F 92% 30.09 in 2.5 mi North 5.8 mph - N/A   Overcast
11:25 AM 42.8 °F 40.1 °F 39.2 °F 87% 30.08 in 3.0 mi NNW 4.6 mph - N/A   Overcast
11:52 AM 43.0 °F 40.3 °F 39.0 °F 86% 30.10 in 3.0 mi North 4.6 mph - N/A   Overcast
12:52 PM 44.1 °F - 39.0 °F 82% 30.09 in 4.0 mi Calm Calm - N/A   Haze
1:52 PM 44.1 °F 42.5 °F 39.0 °F 82% 30.10 in 4.0 mi NW 3.5 mph - N/A   Haze
2:52 PM 45.0 °F 43.5 °F 39.0 °F 80% 30.11 in 4.0 mi NW 3.5 mph - N/A   Haze
3:27 PM 42.8 °F 38.6 °F 39.2 °F 87% 30.10 in 3.0 mi NNW 6.9 mph - N/A   Overcast
3:52 PM 43.0 °F 38.8 °F 39.9 °F 89% 30.12 in 3.0 mi NNW 6.9 mph - N/A   Overcast
4:52 PM 42.1 °F 39.2 °F 39.9 °F 92% 30.13 in 4.0 mi NNW 4.6 mph - N/A   Overcast
5:52 PM 42.1 °F 39.2 °F 39.9 °F 92% 30.14 in 4.0 mi NNW 4.6 mph - N/A   Overcast
6:52 PM 41.0 °F 39.0 °F 39.9 °F 96% 30.16 in 3.0 mi NNW 3.5 mph - N/A   Overcast
7:52 PM 41.0 °F 39.0 °F 39.9 °F 96% 30.16 in 3.0 mi WNW 3.5 mph - N/A   Overcast
8:52 PM 39.9 °F 37.8 °F 39.9 °F 100% 30.18 in 3.0 mi NW 3.5 mph - N/A   Overcast
9:52 PM 39.9 °F 37.8 °F 39.0 °F 97% 30.18 in 3.0 mi West 3.5 mph - N/A   Overcast
9:59 PM 39.2 °F 37.0 °F 39.2 °F 100% 30.16 in 2.5 mi West 3.5 mph - N/A   Overcast
10:16 PM 39.2 °F 37.0 °F 39.2 °F 100% 30.16 in 3.0 mi West 3.5 mph - N/A   Overcast
10:34 PM 39.2 °F 37.0 °F 39.2 °F 100% 30.16 in 2.5 mi WNW 3.5 mph - N/A   Overcast
10:44 PM 39.2 °F 35.9 °F 39.2 °F 100% 30.16 in 3.0 mi WNW 4.6 mph - N/A   Overcast
10:52 PM 39.9 °F 37.8 °F 39.0 °F 97% 30.18 in 3.0 mi WNW 3.5 mph - N/A   Overcast
11:05 PM 39.2 °F - 39.2 °F 100% 30.17 in 2.5 mi Calm Calm - N/A   Overcast
11:28 PM 39.2 °F - 39.2 °F 100% 30.16 in 3.0 mi Calm Calm - N/A   Overcast
11:52 PM 39.9 °F 37.8 °F 39.0 °F 97% 30.18 in 3.0 mi WSW 3.5 mph - N/A   Overcast